    Orbital elements:
    2010 DJ41 = 2023 AC                                      Earth MOID = 0.1385 AU
    Id. A. Doppler
    Epoch 2023 Feb. 25.0 TT = JDT 2460000.5                 Veres                   
    M  21.95024              (2000.0)            P               Q                  
    n   0.22792859     Peri.  341.01928     +0.90127955     -0.41835963             
    a   2.6542196      Node    44.25806     +0.41543055     +0.76082979             
    e   0.7658707      Incl.    9.28178     +0.12293345     +0.49609802             
    P   4.32           H   18.40          G   0.15           U   0                  
    Residuals in seconds of arc
    100217 703  0.4-  0.3-    230112 L47  0.7+  0.2-    230131 B88  0.1+  0.1-
    100217 703  0.2+  0.6+    230112 L47  0.2+  0.1-    230131 Z80  0.6-  0.2+
    100217 703  0.0   0.1+    230112 L47  0.1+  0.4-    230131 Z80  0.6+  0.3+
    100217 703  0.2+  0.3+    230112 C40  0.2+  0.2+    230131 Z80  0.4-  0.0
    100219 703  0.0   0.4+    230112 C40  0.0   0.1+    230131 B88  0.0   0.2-
    100219 703  0.3+  0.2+    230112 C40  0.1-  0.0     230201 B88  0.2+  0.0
    100219 703  0.4+  1.1+    230113 703  0.0   0.1-    230201 B88  0.0   0.0
    100219 703  0.6+  0.0     230113 703  0.0   0.1-    230201 B88  0.1-  0.1-
    150323 F51  0.3+  0.2+    230113 703  0.2-  0.2-    230202 B88  0.0   0.1-
    150323 F51  0.3-  0.0     230113 F52  0.3-  0.1+    230202 B88  0.0   0.0
    190115 F52  0.5+  0.1+    230113 F52  0.4+  0.0     230202 B88  0.1+  0.0
    190115 F52  0.3+  0.1+    230113 F52 (0.5-  0.0 )   230203 Z80  0.2-  0.2+
    190115 F52  0.1-  0.2-    230114 F52  0.2+  0.1-    230203 Z80  0.3+  0.6-
    190205 F51  0.2-  0.0     230114 F52  0.0   0.1-    230204 J27  0.1+  0.3+
    190205 F51  0.1-  0.1-    230114 F52 (0.6-  0.2-)   230204 J27  0.0   0.1+
    190205 F51  0.2+  0.1-    230115 G40  0.0   0.0     230204 J27  0.0   0.1+
    230109 703  0.5+  0.6+    230115 Z80  0.1+  0.1-    230204 H21  0.1-  0.1+
    230109 703  0.8+  0.6+    230115 Z80  0.2-  0.2-    230204 H21  0.3-  0.1+
    230109 G96  0.2-  0.0     230115 Z80  0.0   0.4-    230204 H21  0.3-  0.1+
    230109 703  0.7+  0.3+    230115 G40  0.1+  0.1-    230204 H21  0.2-  0.1+
    230109 G96  0.1+  0.1+    230115 G40  0.0   0.1-    230204 H21  0.2-  0.1+
    230109 703  0.1+  0.7+    230115 G40  0.1-  0.0     230204 H21  0.1-  0.1+
    230109 G96  0.1-  0.0     230115 T05  0.1+  0.1-    230204 H21  0.0   0.1+
    230109 703  3.0-  1.8+    230115 T05  0.1-  0.1-    230204 H21  0.2+  0.2+
    230109 G96  0.0   0.0     230115 T05  0.0   0.0     230206 H21  0.1-  0.1+
    230109 703  3.2-  1.4+    230115 T05  0.0   0.1+    230206 H21  0.2-  0.2-
    230109 703  2.5-  2.4+    230115 Z80  0.6+  0.3-    230206 H21  0.2-  0.3+
    230109 703  2.6-  2.3+    230115 Z80  0.5+  0.0     230206 H21  0.2-  0.1+
    230109 I52  0.0   0.1-    230117 J95  0.1-  0.1-    230206 H21  0.1-  0.0
    230109 I52  0.1+  0.0     230117 J95  0.1-  0.1+    230206 H21  0.1-  0.4+
    230109 I52  0.0   0.0     230117 J95  0.0   0.2+    230206 H21  0.1+  0.1+
    230109 I52  0.1+  0.0     230117 J95  0.0   0.1-    230206 H21  0.2-  0.3+
    230109 587  0.5-  0.1+    230117 G01  0.1-  0.1-    230206 H21  0.1-  0.1+
    230109 587  0.2-  0.4+    230117 G01  0.2-  0.0     230206 H21  0.1-  0.3+
    230109 587  0.2-  0.4+    230117 Z80  0.3+  0.2-    230206 B72  0.2-  0.0
    230109 C40  0.1+  0.1+    230117 Z80  0.1+  0.1-    230206 B72  0.2+  0.2+
    230109 C40  0.5-  0.3+    230117 Z80  0.1+  0.3-    230206 B72  0.3-  0.3-
    230109 C40  0.2-  0.8+    230117 G01  0.2+  0.0     230207 G19  0.3+  0.1-
    230109 C40  0.4+  0.1+    230117 G01  0.2-  0.2-    230207 G19  0.1-  0.1+
    230109 C40  0.2+  0.2+    230118 G01  0.6+  0.1+    230207 G01  0.1+  0.3-
    230109 C40  0.2-  0.3+    230118 G01  0.0   0.1-    230207 G01  0.1+  0.3-
    230109 C40  0.0   0.2+    230118 G01  0.4+  0.2+    230207 Z80  0.2-  0.2+
    230109 C40  0.2-  0.2+    230118 G01  0.3-  0.4-    230207 G19  0.2-  0.2-
    230109 C40  0.3+  0.2+    230118 G01  0.3-  0.2-    230207 G01  0.0   0.5-
    230109 Z80  0.4+  0.3+    230118 G01  0.3-  0.2-    230207 Z80  0.4-  0.3-
    230109 C40  0.1+  0.3-    230118 Z80  0.3-  0.1+    230207 Z80  0.3+  0.0
    230109 C40  0.2-  0.0     230118 Z80  0.5-  0.1-    230207 K74  0.3-  0.1-
    230109 Z80  0.3+  0.2+    230118 Z80  0.5-  0.1-    230207 K74  0.3-  0.1-
    230109 104  0.3+  0.0     230119 900  0.2-  0.2+    230207 K74  0.1-  0.1-
    230109 J95  0.3+  0.3-    230119 900  0.1-  0.5+    230207 K74  0.1-  0.3-
    230109 J95  0.0   0.1+    230119 Z80  0.2-  0.2-    230207 K87  0.7-  0.8-
    230109 104  0.3+  0.1+    230119 Z80  0.3+  0.3-    230207 K87  0.3-  0.2+
    230109 C40  0.1-  0.0     230119 Z80  0.3+  0.0     230207 K87  0.4-  0.3-
    230109 J95  0.1-  0.3-    230120 G01  2.7+  1.3-    230208 703  0.2-  0.3-
    230109 J95  0.1+  0.2-    230120 G01  0.0   0.3+    230208 703  0.4+  0.0
    230109 Z80  0.2+  0.1-    230120 G01  1.4-  1.1+    230208 703  0.3+  0.1-
    230109 104  0.2-  0.1+    230120 G01  0.6-  0.4+    230208 703  0.1-  0.3+
    230109 204  0.0   0.1+    230120 J95  0.1+  0.0     230208 L04  0.0   0.2+
    230109 204  0.3+  0.1-    230120 J95  0.0   0.1-    230208 L04  0.1-  0.4+
    230109 204  0.0   0.2+    230120 J95  0.0   0.0     230208 L18  0.3+  0.1+
    230109 204  0.1+  0.1-    230120 J95  0.1+  0.0     230208 L18  0.2-  0.4-
    230109 K83  0.4-  0.1+    230121 J69  0.1+  0.1-    230208 L18  0.6-  0.1+
    230109 204  0.0   0.0     230121 J69  0.3-  0.2+    230208 Z80  0.3-  0.1+
    230109 K83  0.1+  0.0     230121 J69  0.3-  0.4+    230208 B67  0.1+  0.1-
    230109 Z99  0.3+  0.3-    230121 J69  0.4-  0.0     230208 Z80  0.4+  0.4-
    230109 K83  0.2+  0.4-    230121 Z43  0.1-  0.5+    230208 B67  0.1-  0.3-
    230109 Z99  0.2+  0.2-    230121 Z80  0.6+  0.4-    230208 B67  0.0   0.1-
    230109 Z99  0.3+  0.1-    230121 Z43  0.2-  0.1-    230208 G01  0.0   0.2+
    230109 Z45  0.7-  0.2-    230121 Z43  0.3+  0.2+    230208 G01  0.2-  0.2-
    230109 Z45  0.2+  0.3+    230121 Z80  0.3+  0.1-    230208 K87  0.3+  0.2+
    230110 Z45  0.3+  0.3-    230121 Z43  0.1+  0.0     230208 K87  0.7-  0.1+
    230110 K38  0.2-  0.0     230121 Z80  0.1-  0.2+    230208 K87  0.5-  0.0
    230110 Z45  0.1+  0.6+    230122 O51  0.6-  0.0     230208 G01  0.3+  0.2-
    230110 Z45  0.6-  0.0     230122 O51  0.9-  0.4-    230208 G01  0.0   0.1-
    230110 Z45  0.4-  0.2-    230122 O51  1.0-  0.5-    230209 G01  0.2-  0.3-
    230110 K38  0.1-  0.0     230123 703  0.0   0.1-    230209 G01  0.4+  0.0
    230110 Z45  0.6-  0.1+    230123 703  0.1-  0.1+    230209 G01  0.5-  0.2-
    230110 K38  0.1-  0.1-    230123 703  0.1+  0.1-    230209 G96  0.0   0.0
    230110 203  0.2+  0.0     230123 703  0.1-  0.1+    230209 G96  0.1+  0.0
    230110 203  0.2-  0.1+    230123 M32  0.2+  0.6+    230209 G96  0.0   0.0
    230110 203  0.0   0.1+    230123 M32  0.3+  0.4-    230209 G96  0.1+  0.0
    230110 G40  0.4-  0.1-    230123 M32  0.3-  0.9-    230209 K74  0.1-  0.3+
    230110 G40  0.3-  0.0     230123 M32  0.1+  0.1+    230209 K74  0.9-  0.1-
    230110 C40  0.1+  0.2-    230123 M32  0.4-  0.0     230209 K74  0.3+  0.2+
    230110 950  0.3-  0.2+    230123 M32  0.1+  0.2+    230209 K87  0.7+  0.9+
    230110 C40  0.2-  0.1+    230123 M32  0.2-  0.6+    230209 K87  0.2-  0.4+
    230110 C40  0.2-  0.0     230123 M32  0.2+  0.0     230209 K87  0.1-  0.5+
    230110 950  0.2+  0.3+    230123 M32  0.6-  0.0     230210 B88  0.0   0.1-
    230110 950  0.2-  0.3+    230123 M32  0.2-  0.6-    230210 B88  0.1+  0.1+
    230110 H21  0.1+  0.2+    230123 M32  0.1+  0.2+    230210 B88  0.1-  0.0
    230110 H21  0.1-  0.2+    230123 M32  0.5-  0.1-    230211 J27  0.2+  0.2-
    230110 H21  0.0   0.1+    230123 M32  0.5-  0.9+    230211 J27  0.0   0.2-
    230110 H21  0.0   0.0     230123 M32  0.4-  0.6+    230211 J27  0.1-  0.0
    230110 H36  0.4-  0.3-    230123 M32  0.3-  0.6+    230211 703  0.8+  0.4+
    230110 H36  0.4-  0.2-    230123 M32  0.4-  0.8-    230211 703  0.4-  0.5-
    230110 H36  0.7-  0.3-    230123 M32  0.0   0.2+    230211 703  0.1-  0.2-
    230110 H36  0.4-  0.2-    230123 M32  0.0   0.2+    230211 703  0.6+  0.4+
    230110 900  0.1-  0.0     230123 M32  0.3+  0.1+    230211 130  0.1+  0.0
    230110 900  0.0   0.0     230123 M32  0.0   0.1+    230211 130  0.1-  0.0
    230110 900  0.0   0.0     230123 M32  0.1-  0.2+    230211 130  0.2+  0.0
    230110 P87  0.4+  0.1-    230123 M32  0.3+  1.1-    230211 130  0.1+  0.1+
    230110 P87  0.4-  0.0     230123 M32  0.2-  0.0     230212 B88  0.2+  0.0
    230110 C40  0.2-  0.0     230123 M32  0.0   0.2+    230212 B88  0.2+  0.1-
    230110 C40  0.2-  0.4+    230123 M32  0.4-  0.1-    230212 B88  0.2+  0.2-
    230110 L01  0.2-  0.0     230123 M32  0.2-  0.6-    230213 B88  0.1+  0.0
    230110 L01  0.2-  0.2+    230123 M32  0.3+  0.5-    230213 B88  0.1+  0.1-
    230110 L01  0.2-  0.1+    230123 M32  0.5-  0.1-    230213 B88  0.0   0.2-
    230110 C40  0.1-  0.3+    230123 M32  0.3-  0.3-    230213 K87  0.4-  0.5+
    230110 L01  0.4-  0.1-    230123 M32  0.2+  0.2+    230213 K87  0.8-  0.0
    230110 L01  0.2-  0.4+    230123 M32  0.3+  0.3-    230213 K87  0.6-  0.1-
    230110 C40  0.1-  0.1+    230123 M32  0.2+  0.2-    230214 B88  0.0   0.0
    230110 C40  0.1-  0.0     230124 Z80  0.1-  0.3-    230214 B88  0.0   0.1+
    230110 595  0.4+  0.2+    230124 Z80  0.6-  0.7+    230214 B88  0.1+  0.2-
    230110 595  0.0   0.1-    230125 L51  0.3-  0.1-    230214 B72  0.1-  0.1-
    230110 C40  0.1+  0.1+    230125 L51  0.3-  0.2-    230214 B72  0.2+  0.1+
    230110 595  0.5+  0.4-    230125 L51  0.2-  0.3-    230214 B72  0.0   0.2+
    230110 595  0.4+  0.1-    230125 F51  0.0   0.0     230214 246  0.2-  0.4+
    230110 M26  0.1-  0.8-    230125 F51  0.0   0.0     230214 246  0.2-  0.5+
    230110 M26  0.5-  0.4-    230125 F51  0.1-  0.1-    230214 246  0.3-  0.3+
    230110 M26  0.4-  0.2-    230125 K19  0.3-  0.2+    230214 246  0.0   0.3+
    230110 L47  0.4+  0.6+    230125 K19  0.3-  0.3+    230214 246  0.1-  0.2+
    230110 L47  0.6-  0.7+    230125 K19  0.2-  0.3+    230214 246  0.3-  0.0
    230110 L47  0.3-  1.5-    230126 M32  0.1+  0.4+    230215 B88  0.4+  0.2-
    230110 L47  1.5+  0.7+    230126 M32  0.0   1.0+    230215 B88  0.0   0.1+
    230110 L47  0.5+  0.7-    230126 M32  0.4-  0.6+    230215 B88  0.1+  0.2+
    230110 C40  0.0   0.0     230127 703  0.6+  0.2+    230216 B88  0.0   0.0
    230110 C40  0.1+  0.2+    230127 703  0.0   0.0     230216 B88  0.0   0.1-
    230110 C40  0.0   0.2+    230127 703  0.2-  0.0     230216 B88  0.0   0.0
    230110 C40  0.1+  0.0     230127 703  0.2-  0.1+    230311 B88  0.1+  0.6+
    230110 C40  0.1+  0.0     230128 K19  0.1-  0.1+    230311 B88  0.5+  0.5+
    230110 C40  0.1-  0.0     230128 K19  0.0   0.1+    230311 B88  0.1+  0.3+
    230110 Z57  0.8-  0.4+    230128 K19  0.1-  0.0     230312 F51  0.0   0.1-
    230110 Z57  0.5+  0.3+    230128 B72  0.0   0.1-    230312 F51  0.0   0.0
    230110 Z57  0.0   0.1+    230128 B72  0.0   0.1-    230312 F51  0.1-  0.1+
    230110 Z57  0.1-  3.0+    230128 B72  0.0   0.1-    230314 B88  0.5+  0.2+
    230110 Z57  0.1+  0.0     230129 G96  0.0   0.1-    230314 B88  0.2+  0.5-
    230110 Z57  0.1-  0.5+    230129 G96  0.0   0.1-    230314 B88  1.0-  0.4-
    230111 900  0.0   0.0     230129 G96  0.0   0.1-    230315 B88  1.5+  0.1+
    230111 900  0.1+  0.1-    230129 G96  0.0   0.1-    230315 B88  0.2+  0.3+
    230111 C40  0.2-  0.1+    230130 703  0.1-  0.0     230315 B88  0.6-  0.1+
    230111 C40  0.1-  0.2+    230130 703  0.4-  0.0     230320 B88  0.4+  0.4+
    230111 C40  0.0   0.2+    230130 703  0.4-  0.1-    230320 B88  0.2-  0.0
    230111 C40  0.2+  0.0     230130 703  0.4-  0.0     230320 B88  0.2+  0.7+
    230111 C40  0.1+  0.1+    230130 C97  0.3+  0.1+    230325 B88  0.7+  0.6+
    230111 C40  0.2+  0.1-    230130 C97  0.1+  0.3+    230325 B88  0.9-  0.7-
    230111 C40  0.1+  0.0     230130 C97  0.1-  0.3+    230325 B88  1.1+  0.4+
    230111 C40  0.0   0.1-    230130 C97  0.0   0.3+    230410 H21  0.4+  0.0
    230111 C40  0.1+  0.0     230130 C97  0.0   0.3+    230410 H21  0.7+  0.4+
    230112 F52  0.0   0.0     230130 C97  0.1+  0.5+    230411 H21  0.1-  0.0
    230112 F52  0.0   0.1+    230130 Z80  0.6-  0.4-    230411 H21  0.5-  0.2+
    230112 F52  0.1+  0.0     230130 Z80  0.5-  0.1+
    230112 L47  0.7+  0.8-    230131 B88  0.0   0.0
    
